sat.trackr.live / text

‹ back to catalog

AQUA

NORAD 27424 · 2002-022A

PAYLOAD ACTIVE UNKNOWN

§ Identity

Operator
Country
US
Launch date
2002-05-04
Launch site
AFWTR
Launch vehicle
Mass (kg)
RCS (m²)
7.84

Purposes: earth_obs

External: N2YO · Heavens-Above · Gunter

§ Orbital elements

Epoch: 2026-09-19T21:42:01.395648Z

Period
98.48 min
Inclination
98.4400°
Eccentricity
0.0001477
Mean motion
14.62206642 rev/d
Perigee alt
685.0 km
Apogee alt
687.1 km
Semi-major
7,064.2 km
B*
1.0409e-4
RAAN
234.1350°
Arg perigee
65.3550°
Mean anomaly
13.9585°
Rev number
29,711

§ Raw data

AQUA1 27424U 02022A   26262.90418282  .00000475  00000+0  10409-3 0  99992 27424  98.4400 234.1350 0001477  65.3550  13.9585 14.62206642297111

JSON: /api/v1/satellites/27424 · /tle

For live sub-satellite position, see the globe view (requires WebGL).

§ Visibility from observer

Set your observer location to see the next 7 days of passes ≥ 10°. The values pass through the URL so the page stays shareable.

No JS? Fill the form by hand. The geolocation button needs JavaScript.

§ Radio — SatNOGS DB

ModeDescriptionDownlinkUplink
BPSK S-band telemetry 2.288 GHz
SQPSK X-band downlink [SQPSK, RHCP, 255/223] Transmitter 8.160 GHz

2 transmitters · refreshed weekly from db.satnogs.org